User: anonymous   Login
Location: Godiavel Galaoual
(15.2485°N, 12.6604°W)
Time: 03:54:05
(UTC+00:00)
Language:

ISS - Orbit

View from above orbital plane
View from above orbital plane
View from above satellite
View from above satellite

Ground track
Ground track

The orbit data is extracted from the following two-line orbital elements,

1 25544U 98067A   21173.65515341 -.00000451  00000-0  00000+0 0  9994
2 25544  51.6428 315.6803 0003919 122.6547 356.3586 15.49000460289445
Epoch (UTC): 22 June 2021 15:43:25
Eccentricity: 0.0003919
inclination: 51.6428°
perigee height: 417 km
apogee height: 422 km
right ascension of ascending node: 315.6803°
argument of perigee: 122.6547°
revolutions per day: 15.49000460
mean anomaly at epoch: 356.3586°
orbit number at epoch: 28944

The dashed part of the orbit path shows where the satellite is in the earth's shadow,  

DLR